Вернуться в каталог

SL-8 DEB

АктивенLEO
NORAD 21958·DEBRIS·🇷🇺 Russia

Запущен Feb 12, 1991 с Plesetsk Cosmodrome

Loading…

Ближайшие Пролёты (ближайшие 24 часа)

TLE

СвежийSource: Space-Track

Эпоха: Sep 14, 2026, 00:56 UTC

1 21958U 91009CG  26257.03922360 -.00000055  00000-0 -40039-3 0  9992
2 21958  73.9613 104.8937 0133717  28.3165 124.2960 12.16812543577595

Отслеживайте SL-8 DEB в реальном времени с AllMySat

Download on the App Store